Location: ????????
(54.6123°N, 39.2099°E)
Time: 10:28:51
(UTC+00:00)

SWARM A - Pass Details

Date: 19 May 2025
Orbit: 437 x 441 km, 87.3° (Epoch: 13 June)

Event Time Altitude Azimuth Distance (km) Brightness Sun altitude
Exits shadow 19:13:11 11° 186° (S) 1,493 6.5 -10.7°
Maximum altitude 19:16:24 79° 274° (W) 460 4.4 -10.9°
Drops below altitude 10° 19:19:50 10° 1° (N) 1,579 8.1 -11.2°
Sets 19:21:53 0° 3° (N) 2,454 9.1 -11.3°
